GW3577 Weather Reports


Display with metric or nautical units.
time (UTC)temp
F
wind
direction
speed
MPH
gust
MPH
rain 1hr
in
rain 24hr
in
rain mn
in
humidity
%
barometer
mb
20260509005710 52 338 0.0 0.0 0.00 0.00 0.00 80 1014.3
20260509005207 53 338 0.0 3.0 0.00 0.00 0.00 79 1014.3
20260509004702 53 217 0.0 0.0 0.00 0.00 0.00 81 1014.3
20260509004159 53 217 0.0 0.0 0.00 0.00 0.00 80 1014.7
20260509003658 54 217 0.0 0.0 0.00 0.00 0.00 78 1014.3
20260509003155 55 217 0.0 0.0 0.00 0.00 0.00 77 1014.7
20260509002652 56 217 0.0 0.0 0.00 0.00 0.00 72 1014.7
20260509002149 56 217 0.0 0.0 0.00 0.00 0.00 71 1014.7
20260509001647 56 217 0.0 0.0 0.00 0.00 0.00 70 1014.3
20260509001142 57 217 0.0 0.0 0.00 0.00 0.00 68 1014.7
20260509000641 58 217 0.0 0.0 0.00 0.00 0.00 67 1014.7
20260509000137 59 217 0.0 0.0 0.00 0.00 0.00 65 1014.7
20260508235635 60 217 0.0 0.0 0.00 0.00 0.00 62 1014.7
20260508235131 62 217 0.0 0.0 0.00 0.00 0.00 58 1014.3
20260508234629 63 217 0.0 0.0 0.00 0.00 0.00 54 1014.3
20260508234125 64 217 1.0 2.0 0.00 0.00 0.00 48 1014.3
20260508233624 65 217 3.0 4.0 0.00 0.00 0.00 44 1014.3
20260508233121 66 217 1.0 3.0 0.00 0.00 0.00 40 1014.3
20260508232618 67 217 3.0 4.0 0.00 0.00 0.00 40 1014.0
20260508232115 67 179 2.0 4.0 0.00 0.00 0.00 38 1014.0
20260508231613 67 175 3.0 7.0 0.00 0.00 0.00 38 1014.0
20260508231109 68 174 3.0 5.0 0.00 0.00 0.00 38 1013.7
20260508230606 68 235 2.0 6.0 0.00 0.00 0.00 38 1013.7
20260508225601 68 233 1.0 2.0 0.00 0.00 0.00 38 1013.7
20260508225057 68 220 4.0 6.0 0.00 0.00 0.00 37 1013.7
20260508224555 68 213 4.0 7.0 0.00 0.00 0.00 36 1013.7
20260508224052 69 175 5.0 8.0 0.00 0.00 0.00 36 1013.7
20260508223549 69 188 4.0 6.0 0.00 0.00 0.00 37 1013.7
20260508223046 69 182 3.0 4.0 0.00 0.00 0.00 37 1013.7
20260508222544 69 159 2.0 5.0 0.00 0.00 0.00 37 1013.7
20260508222041 69 208 4.0 9.0 0.00 0.00 0.00 36 1013.7
20260508221537 69 199 5.0 7.0 0.00 0.00 0.00 36 1013.7
20260508221033 69 191 5.0 7.0 0.00 0.00 0.00 36 1013.7
20260508220530 69 239 7.0 14.0 0.00 0.00 0.00 36 1013.7
20260508220026 69 188 3.0 4.0 0.00 0.00 0.00 35 1013.7
20260508215523 69 188 5.0 8.0 0.00 0.00 0.00 36 1013.7
20260508215020 70 221 5.0 9.0 0.00 0.00 0.00 36 1013.7
20260508214517 70 232 6.0 9.0 0.00 0.00 0.00 36 1013.7
20260508214013 70 212 4.0 7.0 0.00 0.00 0.00 36 1013.7
20260508213511 70 190 4.0 6.0 0.00 0.00 0.00 35 1013.7
20260508213006 70 191 6.0 11.0 0.00 0.00 0.00 35 1013.7
20260508212503 70 220 6.0 11.0 0.00 0.00 0.00 36 1013.7
20260508211959 70 206 6.0 11.0 0.00 0.00 0.00 35 1013.7
20260508211455 70 188 4.0 10.0 0.00 0.00 0.00 35 1013.7
20260508210952 70 203 5.0 6.0 0.00 0.00 0.00 35 1013.7
20260508210448 70 213 5.0 11.0 0.00 0.00 0.00 36 1013.7
20260508205945 71 203 7.0 9.0 0.00 0.00 0.00 36 1013.7
20260508205442 71 175 4.0 7.0 0.00 0.00 0.00 35 1013.7
20260508204938 71 174 7.0 13.0 0.00 0.00 0.00 35 1013.7
20260508204436 71 180 1.0 5.0 0.00 0.00 0.00 34 1013.7
20260508203931 71 213 3.0 6.0 0.00 0.00 0.00 36 1013.7
20260508203427 70 180 5.0 9.0 0.00 0.00 0.00 34 1014.0
20260508202923 71 164 6.0 13.0 0.00 0.00 0.00 34 1013.7
20260508202421 71 199 4.0 9.0 0.00 0.00 0.00 35 1014.0
20260508201918 71 179 4.0 6.0 0.00 0.00 0.00 34 1014.0
20260508201414 71 183 4.0 7.0 0.00 0.00 0.00 35 1014.0
20260508200911 71 169 5.0 9.0 0.00 0.00 0.00 33 1014.0
20260508200408 71 222 2.0 8.0 0.00 0.00 0.00 34 1014.0
20260508195903 71 203 4.0 7.0 0.00 0.00 0.00 35 1014.0
20260508195400 71 228 8.0 17.0 0.00 0.00 0.00 34 1014.0
20260508194856 70 173 6.0 9.0 0.00 0.00 0.00 33 1014.0
20260508194354 71 206 7.0 13.0 0.00 0.00 0.00 34 1014.0
20260508193851 71 236 12.0 17.0 0.00 0.00 0.00 36 1014.3
20260508193348 71 201 6.0 8.0 0.00 0.00 0.00 34 1014.3
20260508192844 70 191 2.0 5.0 0.00 0.00 0.00 33 1014.3
20260508192341 70 185 4.0 7.0 0.00 0.00 0.00 35 1014.3
20260508191838 70 182 6.0 10.0 0.00 0.00 0.00 36 1014.3
20260508191335 70 257 9.0 13.0 0.00 0.00 0.00 34 1014.3
20260508190832 70 252 4.0 8.0 0.00 0.00 0.00 34 1014.7
20260508190329 71 227 8.0 13.0 0.00 0.00 0.00 36 1014.7
20260508185825 70 238 8.0 12.0 0.00 0.00 0.00 34 1014.7
20260508185323 70 228 8.0 12.0 0.00 0.00 0.00 36 1014.7
20260508184820 71 221 8.0 15.0 0.00 0.00 0.00 34 1014.7
20260508184317 70 196 4.0 8.0 0.00 0.00 0.00 34 1014.7
20260508183813 70 168 5.0 10.0 0.00 0.00 0.00 35 1015.0
20260508183310 70 191 4.0 7.0 0.00 0.00 0.00 34 1015.0
20260508182806 69 182 6.0 9.0 0.00 0.00 0.00 33 1015.4
20260508182306 70 204 5.0 8.0 0.00 0.00 0.00 35 1015.0
20260508181759 70 232 9.0 17.0 0.00 0.00 0.00 36 1015.4
20260508181256 70 178 6.0 9.0 0.00 0.00 0.00 36 1015.4
20260508180753 69 238 6.0 11.0 0.00 0.00 0.00 34 1015.4
20260508180250 69 185 8.0 14.0 0.00 0.00 0.00 33 1015.4
20260508175746 69 243 8.0 11.0 0.00 0.00 0.00 34 1015.8
20260508175242 69 180 5.0 9.0 0.00 0.00 0.00 35 1015.8
20260508174740 69 213 4.0 12.0 0.00 0.00 0.00 36 1015.8
20260508174238 69 180 5.0 7.0 0.00 0.00 0.00 36 1015.8
20260508173734 68 185 6.0 9.0 0.00 0.00 0.00 36 1015.8
20260508173230 68 166 5.0 7.0 0.00 0.00 0.00 35 1015.8
20260508172727 69 193 2.0 6.0 0.00 0.00 0.00 35 1016.1
20260508172224 69 235 9.0 13.0 0.00 0.00 0.00 35 1016.1
20260508171720 68 235 8.0 13.0 0.00 0.00 0.00 37 1016.1
20260508171216 68 225 4.0 9.0 0.00 0.00 0.00 36 1016.5
20260508170714 68 243 8.0 12.0 0.00 0.00 0.00 35 1016.1
20260508170212 68 226 6.0 9.0 0.00 0.00 0.00 35 1016.1
20260508165708 68 164 5.0 9.0 0.00 0.00 0.00 36 1016.5
20260508165206 68 158 6.0 11.0 0.00 0.00 0.00 37 1016.5
20260508164702 68 160 6.0 9.0 0.00 0.00 0.00 38 1016.5
20260508164158 68 166 6.0 12.0 0.00 0.00 0.00 38 1016.5
20260508163656 67 280 6.0 9.0 0.00 0.00 0.00 37 1016.8
20260508163153 67 227 6.0 7.0 0.00 0.00 0.00 39 1016.8
20260508162649 68 96 4.0 6.0 0.00 0.00 0.00 37 1017.2
20260508162146 68 115 3.0 4.0 0.00 0.00 0.00 37 1017.2
20260508161643 67 184 3.0 6.0 0.00 0.00 0.00 39 1017.2
20260508161141 67 103 4.0 6.0 0.00 0.00 0.00 43 1017.2
20260508160639 66 121 3.0 5.0 0.00 0.00 0.00 41 1017.5
20260508160136 66 93 6.0 8.0 0.00 0.00 0.00 42 1017.5
20260508155634 66 210 1.0 4.0 0.00 0.00 0.00 44 1017.5
20260508155130 66 111 4.0 7.0 0.00 0.00 0.00 44 1017.5
20260508154627 65 79 3.0 5.0 0.00 0.00 0.00 45 1017.8
20260508154123 64 148 2.0 4.0 0.00 0.00 0.00 42 1017.5
20260508153620 65 124 6.0 8.0 0.00 0.00 0.00 42 1017.5
20260508153117 64 91 3.0 4.0 0.00 0.00 0.00 43 1017.5
20260508152614 64 182 3.0 6.0 0.00 0.00 0.00 44 1017.5
20260508152109 64 148 2.0 4.0 0.00 0.00 0.00 43 1017.8
20260508151607 64 157 5.0 7.0 0.00 0.00 0.00 47 1017.8
20260508151103 63 177 3.0 6.0 0.00 0.00 0.00 46 1017.8
20260508150601 63 183 3.0 4.0 0.00 0.00 0.00 47 1017.8
20260508150056 63 117 4.0 7.0 0.00 0.00 0.00 49 1017.8
20260508145553 63 119 4.0 7.0 0.00 0.00 0.00 49 1017.8
20260508145049 62 212 4.0 6.0 0.00 0.00 0.00 47 1017.8
20260508144547 62 246 1.0 3.0 0.00 0.00 0.00 52 1017.8
20260508144044 61 193 1.0 4.0 0.00 0.00 0.00 51 1017.8
20260508143542 61 182 2.0 6.0 0.00 0.00 0.00 54 1018.2
20260508143038 60 130 3.0 6.0 0.00 0.00 0.00 55 1017.8
20260508142535 60 173 3.0 6.0 0.00 0.00 0.00 55 1018.2
20260508142032 60 198 4.0 6.0 0.00 0.00 0.00 56 1018.2
20260508141528 59 198 2.0 4.0 0.00 0.00 0.00 55 1018.2
20260508141026 59 201 3.0 5.0 0.00 0.00 0.00 52 1018.2
20260508140523 59 238 2.0 5.0 0.00 0.00 0.00 56 1018.2
20260508140019 59 136 2.0 3.0 0.00 0.00 0.00 57 1018.2
20260508135515 58 136 1.0 3.0 0.00 0.00 0.00 58 1018.2
20260508135006 58 146 3.0 4.0 0.00 0.00 0.00 59 1018.2
20260508134503 57 119 2.0 5.0 0.00 0.00 0.00 59 1018.2
20260508134000 57 119 3.0 4.0 0.00 0.00 0.00 58 1018.2
20260508133457 57 236 2.0 4.0 0.00 0.00 0.00 56 1018.2
20260508132953 57 236 2.0 4.0 0.00 0.00 0.00 59 1018.2
20260508132452 57 236 0.0 0.0 0.00 0.00 0.00 59 1018.2
20260508131948 57 278 0.0 0.0 0.00 0.00 0.00 64 1018.2
20260508131444 57 278 1.0 2.0 0.00 0.00 0.00 63 1018.2
20260508130941 56 278 0.0 0.0 0.00 0.00 0.00 60 1018.2
20260508130438 56 278 0.0 0.0 0.00 0.00 0.00 64 1018.5
20260508125933 55 278 0.0 0.0 0.00 0.00 0.00 63 1018.5
20260508125429 55 278 0.0 0.0 0.00 0.00 0.00 67 1018.5
20260508124927 55 278 0.0 0.0 0.00 0.00 0.00 67 1018.5
20260508124425 54 278 0.0 0.0 0.00 0.00 0.00 70 1018.2
20260508123923 54 278 0.0 0.0 0.00 0.00 0.00 70 1018.2
20260508123421 53 278 0.0 0.0 0.00 0.00 0.00 73 1018.2
20260508122917 53 278 0.0 0.0 0.00 0.00 0.00 74 1018.2
20260508122415 52 278 0.0 0.0 0.00 0.00 0.00 76 1018.2
20260508121912 52 278 0.0 0.0 0.00 0.00 0.00 80 1018.2
20260508121410 51 278 0.0 0.0 0.00 0.00 0.00 85 1018.2
20260508120907 50 278 0.0 0.0 0.00 0.00 0.00 87 1018.2
20260508120404 48 278 0.0 0.0 0.00 0.00 0.00 85 1018.2
20260508115902 47 278 0.0 0.0 0.00 0.00 0.00 89 1017.8
20260508115400 46 278 0.0 0.0 0.00 0.00 0.00 91 1017.8
20260508114856 46 278 0.0 0.0 0.00 0.00 0.00 92 1017.8
20260508114353 45 278 0.0 0.0 0.00 0.00 0.00 92 1017.8
20260508113849 45 278 0.0 0.0 0.00 0.00 0.00 93 1017.5
20260508113348 44 278 0.0 0.0 0.00 0.00 0.00 93 1017.5
20260508112844 43 278 0.0 0.0 0.00 0.00 0.00 95 1017.2
20260508112341 42 278 0.0 0.0 0.00 0.00 0.00 97 1017.2
20260508111838 41 278 0.0 0.0 0.00 0.00 0.00 98 1017.2
20260508111334 41 278 1.0 4.0 0.00 0.00 0.00 98 1017.2
20260508110832 40 278 0.0 0.0 0.00 0.00 0.00 97 1016.8
20260508110330 40 278 0.0 0.0 0.00 0.00 0.00 98 1016.8
20260508105829 40 278 0.0 3.0 0.00 0.00 0.00 98 1016.8
20260508105326 39 278 0.0 0.0 0.00 0.00 0.00 99 1016.8
20260508104823 39 278 0.0 0.0 0.00 0.00 0.00 99 1016.5
20260508104319 39 278 0.0 0.0 0.00 0.00 0.00 99 1016.5
20260508103817 38 278 0.0 0.0 0.00 0.00 0.00 99 1016.5
20260508103313 37 278 0.0 0.0 0.00 0.00 0.00 99 1016.5
20260508102811 37 278 0.0 2.0 0.00 0.00 0.00 99 1016.5
20260508102309 38 278 0.0 0.0 0.00 0.00 0.00 99 1016.1
20260508101806 37 278 0.0 2.0 0.00 0.00 0.00 99 1016.1
20260508101303 37 278 1.0 4.0 0.00 0.00 0.00 98 1015.8
20260508100801 38 278 0.0 0.0 0.00 0.00 0.00 98 1015.8
20260508100259 38 222 0.0 0.0 0.00 0.00 0.00 97 1015.8
20260508095754 38 222 0.0 0.0 0.00 0.00 0.00 97 1015.8
20260508095252 39 222 0.0 0.0 0.00 0.00 0.00 97 1015.8
20260508094749 39 222 0.0 0.0 0.00 0.00 0.00 97 1015.8
20260508094246 39 295 5.0 8.0 0.00 0.00 0.00 98 1015.4
20260508093743 39 352 0.0 3.0 0.00 0.00 0.00 98 1015.8
20260508093241 38 311 0.0 0.0 0.00 0.00 0.00 98 1015.4
20260508092737 38 311 0.0 4.0 0.00 0.00 0.00 98 1015.4
20260508092236 38 311 2.0 4.0 0.00 0.00 0.00 97 1015.4
20260508091733 38 311 0.0 0.0 0.00 0.00 0.00 97 1015.4
20260508091230 39 311 0.0 0.0 0.00 0.00 0.00 97 1015.4
20260508090728 40 311 0.0 0.0 0.00 0.00 0.00 98 1015.4
20260508090226 39 311 0.0 0.0 0.00 0.00 0.00 98 1015.0
20260508085721 39 311 0.0 3.0 0.00 0.00 0.00 97 1015.0
20260508085219 39 311 0.0 0.0 0.00 0.00 0.00 96 1015.0
20260508084714 40 311 1.0 3.0 0.00 0.00 0.00 95 1015.0
20260508084212 40 311 0.0 0.0 0.00 0.00 0.00 95 1015.0
20260508083709 41 311 0.0 0.0 0.00 0.00 0.00 94 1015.4
20260508083207 41 311 0.0 0.0 0.00 0.00 0.00 93 1015.0
20260508082701 42 311 0.0 0.0 0.00 0.00 0.00 91 1015.0
20260508082159 43 311 0.0 0.0 0.00 0.00 0.00 88 1015.0
20260508081656 44 311 0.0 0.0 0.00 0.00 0.00 86 1015.0
20260508081153 45 311 3.0 4.0 0.00 0.00 0.00 82 1015.0
20260508080650 43 332 2.0 5.0 0.00 0.00 0.00 87 1014.7
20260508080148 43 343 5.0 6.0 0.00 0.00 0.00 88 1014.7
20260508075644 41 334 3.0 5.0 0.00 0.00 0.00 93 1014.7
20260508075141 41 312 4.0 6.0 0.00 0.00 0.00 95 1014.7
20260508074639 42 305 0.0 0.0 0.00 0.00 0.00 95 1014.7
20260508074136 41 305 0.0 0.0 0.00 0.00 0.00 94 1014.7
20260508073633 42 319 0.0 3.0 0.00 0.00 0.00 92 1014.3
20260508073131 41 319 2.0 4.0 0.00 0.00 0.00 93 1014.3
20260508072626 41 319 0.0 0.0 0.00 0.00 0.00 96 1014.3
20260508072124 41 315 0.0 0.0 0.00 0.00 0.00 97 1014.7
20260508071621 41 315 0.0 0.0 0.00 0.00 0.00 97 1014.3
20260508071119 41 315 0.0 0.0 0.00 0.00 0.00 98 1014.7
20260508070616 40 315 0.0 0.0 0.00 0.00 0.00 98 1014.7
20260508070116 41 315 0.0 0.0 0.00 0.00 0.00 98 1014.7
20260508065612 41 315 3.0 4.0 0.00 0.00 0.00 98 1014.7
20260508065110 42 320 5.0 6.0 0.00 0.00 0.00 97 1014.7
20260508064607 42 324 1.0 5.0 0.00 0.00 0.00 98 1014.7
20260508064105 41 311 6.0 8.0 0.00 0.00 0.00 96 1014.7
20260508063602 42 311 0.0 0.0 0.00 0.00 0.00 97 1014.7
20260508063100 41 311 0.0 0.0 0.00 0.00 0.00 98 1014.7
20260508062557 42 333 1.0 5.0 0.00 0.00 0.00 97 1014.7
20260508062054 42 334 0.0 0.0 0.00 0.00 0.00 98 1014.7
20260508061551 42 324 4.0 6.0 0.00 0.00 0.00 99 1014.3
20260508061048 42 298 0.0 3.0 0.00 0.00 0.00 98 1014.7
20260508060545 42 302 1.0 4.0 0.00 0.00 0.00 99 1014.3
20260508060043 43 302 1.0 4.0 0.00 0.00 0.00 99 1014.3
20260508055538 42 295 0.0 2.0 0.00 0.00 0.00 99 1014.3
20260508055035 42 295 0.0 0.0 0.00 0.00 0.00 100 1014.3
20260508054531 43 295 0.0 0.0 0.00 0.00 0.00 100 1014.3
20260508054029 42 295 0.0 0.0 0.00 0.00 0.00 100 1014.3
20260508053525 42 295 0.0 0.0 0.00 0.00 0.00 100 1014.3
20260508053024 43 295 0.0 0.0 0.00 0.00 0.00 100 1014.3
20260508052521 42 295 0.0 0.0 0.00 0.00 0.00 100 1014.3
20260508052017 42 295 1.0 4.0 0.00 0.00 0.00 100 1014.0
20260508051514 43 47 0.0 0.0 0.00 0.00 0.00 100 1014.0
20260508051009 43 47 0.0 0.0 0.00 0.00 0.00 100 1014.3
20260508050506 42 47 0.0 0.0 0.00 0.00 0.00 100 1014.3
20260508050003 41 301 0.0 0.0 0.00 0.00 0.00 100 1014.0
20260508045459 41 301 0.0 0.0 0.00 0.00 0.00 100 1014.0
20260508044957 41 301 0.0 0.0 0.00 0.00 0.00 99 1014.0
20260508044454 41 301 0.0 0.0 0.00 0.00 0.00 99 1014.3
20260508043949 42 301 0.0 0.0 0.00 0.00 0.00 100 1014.0
20260508043447 42 301 0.0 0.0 0.00 0.00 0.00 99 1014.0
20260508042943 42 301 0.0 0.0 0.00 0.00 0.00 99 1014.0
20260508042441 43 301 0.0 0.0 0.00 0.00 0.00 99 1014.0
20260508041937 43 301 0.0 0.0 0.00 0.00 0.00 100 1014.0
20260508041434 43 301 0.0 0.0 0.00 0.00 0.00 99 1014.0
20260508040931 44 301 0.0 2.0 0.00 0.00 0.00 99 1014.0
20260508040428 45 301 0.0 0.0 0.00 0.00 0.00 99 1014.0
20260508035926 45 301 0.0 0.0 0.00 0.12 0.12 99 1014.0
20260508035422 45 301 0.0 0.0 0.00 0.12 0.12 99 1013.7
20260508034919 44 301 0.0 0.0 0.00 0.12 0.12 99 1013.7
20260508034417 45 301 0.0 0.0 0.00 0.12 0.12 99 1013.7
20260508033913 46 301 0.0 0.0 0.00 0.12 0.12 100 1013.7
20260508033412 46 301 0.0 0.0 0.00 0.12 0.12 100 1013.7
20260508032909 45 301 0.0 0.0 0.00 0.12 0.12 100 1013.7
20260508032406 45 301 0.0 0.0 0.00 0.12 0.12 100 1013.7
20260508031902 46 301 3.0 4.0 0.00 0.12 0.12 100 1013.7
20260508031400 46 142 0.0 0.0 0.00 0.12 0.12 100 1013.7
20260508030855 46 142 0.0 0.0 0.00 0.12 0.12 100 1013.7
20260508030353 46 142 0.0 0.0 0.00 0.12 0.12 100 1013.7
20260508025850 46 142 0.0 2.0 0.00 0.12 0.12 99 1013.7
20260508025347 47 142 0.0 0.0 0.00 0.12 0.12 99 1013.7
20260508024843 46 142 0.0 0.0 0.00 0.12 0.12 99 1013.7
20260508024340 47 142 0.0 0.0 0.00 0.12 0.12 99 1013.3
20260508023837 47 142 1.0 2.0 0.00 0.12 0.12 99 1013.3
20260508023334 48 142 1.0 2.0 0.00 0.12 0.12 98 1013.3
20260508022830 48 142 0.0 1.0 0.00 0.12 0.12 98 1013.3
20260508022326 49 142 0.0 0.0 0.00 0.12 0.12 98 1013.3
20260508021824 50 142 0.0 0.0 0.00 0.12 0.12 98 1013.3
20260508021319 50 142 0.0 0.0 0.00 0.12 0.12 98 1013.3
20260508020816 51 142 0.0 0.0 0.00 0.12 0.12 98 1013.3
20260508020314 51 142 0.0 0.0 0.00 0.12 0.12 98 1013.0
20260508015810 51 142 0.0 0.0 0.00 0.12 0.12 98 1013.0
20260508015308 51 142 0.0 0.0 0.00 0.12 0.12 98 1013.0
20260508014804 51 142 0.0 0.0 0.00 0.12 0.12 98 1013.0
20260508014302 52 142 0.0 0.0 0.00 0.12 0.12 97 1013.0
20260508013757 52 142 0.0 0.0 0.00 0.12 0.12 97 1013.0
20260508013253 52 142 0.0 0.0 0.00 0.12 0.12 97 1012.6
20260508012751 52 142 0.0 0.0 0.00 0.12 0.12 97 1012.6
20260508012248 52 142 0.0 0.0 0.00 0.12 0.12 97 1012.6
20260508011746 52 142 0.0 0.0 0.00 0.12 0.12 97 1012.6
20260508011243 52 142 0.0 0.0 0.00 0.12 0.12 97 1012.6
20260508010740 52 142 0.0 0.0 0.00 0.12 0.12 97 1012.6
20260508010238 52 142 0.0 0.0 0.00 0.12 0.12 97 1012.6